Hourly Data Report for November 12, 2016

PITT MEADOWS CS
BRITISH COLUMBIA

49°12'29.964" N
122°41'24.076" W
5.00 m
1106178
71775
WMM

Download Data

Hourly Data (November 2016)
Hourly Data Report for November 12, 2016
TIME
LST
Temp Definition
°C
Dew Point Definition
°C
Rel Hum Definition
%
Precip. Amount Definition
mm

Wind Dir Definition
10's deg

Wind Spd Definition
km/h
Visibility Definition
km
Stn Press Definition
kPa
Hmdx Definition


Wind Chill Definition


Weather Definition


00:00 12.6 10.5 87 1.0 4 20   100.80     LegendNANA
01:00 12.6 10.5 87 0.7 3 14   100.73     LegendNANA
02:00 11.8 10.7 93 0.1 8 9   100.71     LegendNANA
03:00 11.7 10.6 93 0.1 9 5   100.69     LegendNANA
04:00 11.5 10.7 95 1.2 31 3   100.64     LegendNANA
05:00 11.6 10.7 94 0.0 11 6   100.66     LegendNANA
06:00 11.7 10.8 94 0.5 31 6   100.72     LegendNANA
07:00 11.7 10.9 95 0.0 11 2   100.73     LegendNANA
08:00 11.9 11.0 95 0.3 35 2   100.72     LegendNANA
09:00 12.5 11.3 92 0.0 8 3   100.78     LegendNANA
10:00 13.9 11.5 86 0.0 17 8   100.85     LegendNANA
11:00 13.9 12.2 89 0.9 14 5   100.96     LegendNANA
12:00 14.1 12.3 89 0.0 17 7   101.07     LegendNANA
13:00 13.9 12.0 88 0.0 16 10   101.13     LegendNANA
14:00 13.9 11.2 84 0.1 18 17   101.25     LegendNANA
15:00 13.2 8.5 73 0.0 21 11   101.48     LegendNANA
16:00 12.8 7.8 72 0.0 22 11   101.64     LegendNANA
17:00 11.8 7.5 75 0.0 25 2   101.79     LegendNANA
18:00 10.4 7.2 81 0.0 15 2   101.85     LegendNANA
19:00 9.7 7.0 84 0.0 15 4   101.94     LegendNANA
20:00 8.1 6.6 90 0.0 9 5   101.96     LegendNANA
21:00 7.5 6.1 91 0.0 0 1   102.08     LegendNANA
22:00 6.4 5.5 94 0.0 5 2   102.06     LegendNANA
23:00 6.2 5.3 95 0.0 12 1   102.17     LegendNANA

Notes on Data Quality.

Legend

  • E = Estimated
  • M = Missing
  • NA = Not Available*
  • [empty] = Indicates an unobserved value
Date modified: